{"data":{"norad_id":63660,"intl_designator":"2025-083AC","name":"STARLINK-33810","alt_names":[],"object_type":"PAYLOAD","status":"ACTIVE","operator":null,"country":"US","launch_date":"2025-04-25","launch_site_code":"AFETR","launch_vehicle":null,"mission":null,"orbit_class":"UNKNOWN","rcs_meters":null,"size_class":null,"mass_kg":null,"dimensions":null,"purposes":["comms"],"wikipedia_slug":null,"has_3d_model":false,"image_url":null,"decayed_at":null,"tle_current":{"epoch":"2026-09-20T12:02:09.949920Z","epoch_age_seconds":152711,"freshness":"FRESH","line1":"1 63660U 25083AC  26263.50150405  .00012083  00000+0  44773-3 0  9999","line2":"2 63660  43.0026 344.7606 0001239 271.8734  88.1976 15.27591517 79890","mean_motion":15.27591517,"eccentricity":0.0001239,"inclination_deg":43.0026,"raan_deg":344.7606,"arg_perigee_deg":271.8734,"mean_anomaly_deg":88.1976,"bstar":0.00044773,"rev_number":7989,"period_min":94.266038006546,"perigee_km":482.1645135306,"apogee_km":483.86470689961,"semimajor_km":6861.1516102151,"source":"CELESTRAK","updated_at":"2026-09-21T09:00:35.056404Z"}}}